Back to catalog

ORBCOMM FM 107

AliveCommunicationsLEO
NORAD 40087·PAYLOAD·🇺🇸 United States

Launched Jul 14, 2014 from Cape Canaveral Space Force Station

Loading…

Next Passes (next 24 hours)

TLE

FreshSource: Space-Track

Epoch: Sep 14, 2026, 09:45 UTC

1 40087U 14040B   26257.40662706  .00000294  00000-0  98101-4 0  9999
2 40087  47.0059  30.3881 0001499 217.6960 142.3822 14.59015387647454

Track ORBCOMM FM 107 in real time with AllMySat

Download on the App Store